Home > Time Zones > World Clock > Weather > France > Lens > Past weeks

Flag for France Weather past 2 weeks in Lens, France

Now
57 °F

Sunny.


Feels Like: 56 °F
Forecast: 50 / 62 °F
Wind: 6 mph from West

Location: Lille Airport

Current Time: Sep 3, 2015 at 9:33:03 PM

Latest Report: Sep 3, 2015 at 9:00 PM


Visibility: 10 mi

Pressure: 29.98 "Hg

Humidity: 67%

Dew point: 46 °F

Location of LensLocation

Historic Weather in Lens — Graph

°F

Lens temperature yesterday

Maximum temperature yesterday: 66 °F (at 2:00 PM)
Minimum temperature yesterday: 52 °F (at 2:30 AM)
Average temperature yesterday: 57 °F

Past Weeks' High & Low Weather Summary

 TemperatureHumidityPressure
High86 °F (Aug 30, 4:30 PM)100% (Aug 21, 1:30 AM)30.21 "Hg (Aug 21, 1:30 AM)
Low46 °F (Sep 3, 6:00 AM)32% (Aug 22, 1:00 PM)29.39 "Hg (Aug 24, 6:30 PM)
Average65 °F77%29.94 "Hg
* Reported Aug 19 8:00 PM — Sep 3 8:30 PM, Lens, Weather by CustomWeather, © 2015

Note: Actual official high and low records may vary slightly from our data, if they occured in-between our weather recording intervals... More about our weather records

Advertising

Lens weather history for previous 24 hours

 ConditionsComfort  
Time TempWeatherWind HumidityBarometerVisibility
8:30 PM
Thu, Sep 3
59 °FSunny.7 mph59%29.98 "Hg10 mi
8:00 PM59 °FPartly sunny.13 mph59%29.98 "HgN/A
7:30 PM61 °FBroken clouds.10 mph55%29.98 "HgN/A
7:00 PM63 °FSunny.12 mph52%29.98 "Hg10 mi
6:30 PM61 °FSunny.9 mph52%29.98 "Hg10 mi
6:00 PM61 °FSunny.12 mph52%29.98 "Hg10 mi
5:30 PM61 °FLight rain. Clear.13 mph63%29.98 "HgN/A
5:00 PM61 °FMostly cloudy.14 mph55%29.95 "HgN/A
4:30 PM64 °FBroken clouds.14 mph52%29.95 "HgN/A
4:00 PM63 °FBroken clouds.10 mph56%29.95 "HgN/A
3:30 PM63 °FMore clouds than sun.8 mph56%29.95 "HgN/A
3:00 PM63 °FPartly sunny.8 mph56%29.98 "HgN/A
2:30 PM63 °FMild.6 mph64%29.98 "HgN/A
2:00 PM61 °FMostly cloudy.9 mph63%29.95 "HgN/A
1:30 PM61 °FPartly sunny.12 mph68%29.95 "HgN/A
1:00 PM63 °FPartly sunny.10 mph64%29.95 "HgN/A
12:30 PM63 °FScattered clouds.12 mph64%29.95 "HgN/A
12:00 PM63 °FScattered clouds.12 mph64%29.98 "HgN/A
11:30 AM61 °FPassing clouds.10 mph72%29.98 "HgN/A
11:00 AM59 °FPassing clouds.8 mph82%29.98 "HgN/A
10:30 AM59 °FScattered clouds.8 mph82%29.98 "HgN/A
10:00 AM55 °FScattered clouds.7 mph94%29.98 "HgN/A
9:30 AM54 °FPassing clouds.5 mph100%29.98 "HgN/A
9:00 AM52 °FSunny.2 mph94%29.98 "Hg10 mi
8:30 AM50 °FClear.No wind94%29.98 "Hg4 mi
8:00 AM48 °FFog.No wind94%29.98 "Hg2 mi
7:30 AM46 °FLight fog.1 mph100%29.98 "Hg2 mi
7:00 AM46 °FLight fog.1 mph93%29.98 "Hg1 mi
6:30 AM46 °FFog.1 mph100%29.98 "Hg1 mi
6:00 AM46 °FFog.No wind100%29.98 "Hg1 mi
5:30 AM48 °FLight fog.No wind94%29.98 "Hg1 mi
5:00 AM48 °FFog.No wind94%29.98 "Hg1 mi
4:30 AM48 °FFog.No wind94%29.98 "Hg1 mi
4:00 AM50 °FDense fog.No wind94%29.98 "Hg1 mi
3:30 AM50 °FDense fog.2 mph94%30.01 "Hg2 mi
3:00 AM50 °FFog.2 mph100%30.01 "Hg1 mi
2:30 AM52 °FDense fog.3 mph94%30.01 "Hg1 mi
2:00 AM52 °FFog.3 mph94%30.01 "Hg1 mi
1:30 AM54 °FFog.2 mph94%30.01 "Hg1 mi
1:00 AM54 °FFog.2 mph94%30.01 "Hg2 mi
12:00 AM55 °FClear.1 mph94%30.01 "Hg4 mi
11:30 PM
Wed, Sep 2
54 °FClear.2 mph94%30.01 "Hg4 mi
11:00 PM55 °FCool.3 mph88%30.01 "Hg6 mi
10:30 PM55 °FPartly cloudy.5 mph88%30.04 "HgN/A
10:00 PM55 °FPassing clouds.6 mph88%30.04 "HgN/A
9:30 PM57 °FCloudy.No wind82%30.04 "HgN/A
9:00 PM57 °FCool.No wind82%30.01 "HgN/A
Weather by CustomWeather, © 2015

See weather overviewHow to use our weather pages